Location: Sobotiste
(48.7170°N, 17.4000°E)
Time: 10:41:07
(UTC+02:00)

METEOR M2 - Pass Details

Date: 21 March 2026
Orbit: 817 x 824 km, 98.5° (Epoch: 18 April)

Event Time Altitude Azimuth Distance (km) Brightness Sun altitude
Rises 05:15:10 0° 8° (N) 3,373 ? -6.8°
Reaches altitude 10° 05:17:40 10° 0° (N) 2,436 ? -6.4°
Maximum altitude 05:22:33 37° 295° (WNW) 1,271 ? -5.6°
Drops below altitude 10° 05:27:25 10° 230° (SW) 2,419 ? -4.8°
Sets 05:29:55 0° 222° (SW) 3,347 ? -4.4°
